Weather in Staroseslavino

Russia / Tambov Oblast     53°12′06″N   40°24′43″E
temp.,
°C
wind,
m/s
gust,
m/s
humid.,
%
clouds,
%
prec.,
mm/h
press.,
hPa
HPBL,
m
25 february, thu
thu2500:00−16s5995100 0.3 1034348
03:00−14ssw51094100 0.6 1031366
06:00−12ssw61094100 0.4 1027381
09:00−9ssw61195100 1.5 1024398
12:00−4sw61396100 2.1 1020569
15:00+1wsw714100100 3.3 1016418
18:00+2wnw51399100 0.3 1015329
21:00+2wnw51099100 0.3 1016254
26 february, fri
fri2600:00+1w51099100 0.0 1016245
03:00+1w41099100 0.0 1016253
06:00+1w51199100 0.2 1014292
09:00+2w51299100 0.3 1014352
12:00+2w612100100 0.0 1012310
15:00+2w71599100 0.1 1010435
18:00+2wsw715100100 0.2 1007433
21:00+2w7159899 0.3 1007538
27 february, sat
sat2700:00+2w71491100 0.0 1006454
03:00+1w71489100 0.0 1006464
06:000w71397100 0.1 1005592
09:00+1w61297100 0.1 1005613
12:00+1w61199100 0.1 1004602
15:00+1wnw612100100 0.1 1004608
18:000wnw71395100 0.1 1004706
21:00−2nnw61093100 0.8 1007650
28 february, sun
sun2800:00−7nnw4119284 0.0 1009453
03:00−9n4109253 0.0 1011370
06:00−9n399474 0.0 1013348
09:00−8n489387 0.1 1014520
12:00−8nnw5791100 0.0 1016508
15:00−6nnw5890100 0.1 1017565
18:00−6nnw4993100 0.1 1018632
21:00−7nnw31095100 0.1 1020426
1 march, mon
mon100:00−8nnw389683 0.0 1022226
03:00−9nnw389677 0.1 1024222
06:00−10nnw499456 0.0 1025230
09:00−9nnw359637 0.0 1027195
12:00−7nw359493 0.0 1028299
15:00−5nw369094 0.1 1028537
18:00−5w379296 0.0 1028228
21:00−7wsw489398 0.0 1027161